STARLINK-30494, 57970

Orbit data source: Space-Track

STARLINK-30494, 57970 is a payload satellite owned by SpaceX/Seattle (US) in LEO that was launched on Sat, 30 Sep 2023 UTC via an FALCON 9 launch vehicle from the Air Force Eastern Test Range (AFETR). Payload-class satellites include a variety of spacecraft equipped with specific instruments for various scientific and technological missions. These include communications satellites like Starlink; space stations such as the ISS; scientific satellites like the Hubble; Earth observation satellites from companies like Planet Labs, Umbra, and HawkEye 360; GPS; miniature CubeSats for education and research; and military/defense satellites.

Loading next visibility...
Identifier
57970, 2023-151G
Orbit
LEO
Country
Flag of USUS
Related business
Manufacturer
SpaceX/Seattle
Mission
Operational Commercial Communications
Bus & Motor
STARLINK V2M, Unknown motor
Mass
730 kg wet, ~700 kg dry
Launch date (UTC)
2023-09-30 (3 years ago)
Launch vehicle
FALCON 9
Launch site
Air Force Eastern Test Range (AFETR)
Object type
Payload
Rocket body
Debris
Shape & HBR
Box + 2 Pan, 17.7 m
Radar Cross Section
33.884 m², Large (>1 m²)

Expand to show TLE details & history
Last TLE update: 7 hours ago

TLE from 7 hours ago
0 STARLINK-30494
1 57970U 23151G   26130.21188455  .00000986  00000-0  45352-4 0  9992
2 57970  43.0038 203.1048 0002236 282.6611  77.3990 15.27578297146868
Epoch: 2026-05-10T05:05Z
TLE epoch observation values (Epoch: 2026-05-10T05:05:06.825Z)
Latitude
-0.00005°
Longitude
-101.1919°
Altitude
482.496 km
Speed
7.626 km/s
True Right ascension
13h 32m 25s
True Declination
0° 00' 00"
Sunlit
Object was in full shadow at epoch
Visualization orbit readout
Latitude
Unknown
Longitude
Unknown
Altitude
Unknown
Speed
Unknown
Apparent Right ascension
Unknown
Apparent Declination
Unknown
Sunlit
N/A
Visualization observer readout
Local Sidereal Time
19:51:38
Azimuth
Unknown
Elevation
Unknown
Doppler factor
Unknown
Orbital elements
Apogee altitude
486.533 km
Perigee altitude
483.464 km
Semi-major axis
6,863.136 km
Eccentricity
0.00022
Inclination
43.0038°
RAAN
203.1048°
Arg. of periapsis
282.6611°
True anomaly
77.42401°
Mean anomaly
77.399°
Eccentric anomaly
77.4115°
Mean motion
3.81733 °/min
Orbital period
94.31 mins
BSTAR
0.000045352
Loading maneuver chart data...
Computing Atmospheric mass density...
Loading historical data...
Loading historical data...
Loading historical data...
Loading historical data...
Loading historical data...
Loading historical data...
Loading historical data...

Documentation

Showing up to 5 results
|